Temperature
21 21 20 20 20 19 19 18 18 18 17 17 16 16 16 16 16 16 15 15 15 15 15 15 15 15 15 14 14 14 14 14 14 15 15 15 14 14 14 14 14 14 14
22 21 20 20 20 19 19 18 18 18 17 17 16 16 16 16 15 15 15 15 15 15 15 15 15 15 14 14 14 14 14 14 14 14 15 14 14 14 14 14 14 14 13
22 21 21 20 20 19 19 18 18 18 17 17 16 16 16 16 15 15 15 15 15 15 15 15 14 14 14 14 14 14 14 14 14 14 14 14 14 14 14 14 14 14 13
22 21 21 20 20 19 19 19 18 18 17 17 16 16 16 16 16 15 15 15 15 15 14 14 14 14 14 14 14 14 14 14 14 14 14 14 14 14 14 13 13 13 13
22 21 21 20 20 19 19 18 18 17 17 17 16 16 16 16 16 15 15 15 15 15 14 14 14 14 14 14 14 14 14 14 14 14 14 14 14 14 14 13 13 13 13
22 21 21 20 19 19 18 18 18 17 17 16 16 16 16 16 16 15 15 15 15 15 14 14 14 14 14 14 14 14 14 14 14 14 14 14 14 14 14 14 13 13 13
22 21 20 20 19 18 18 17 17 17 17 16 16 16 16 16 15 15 15 15 15 15 14 14 14 14 14 14 14 14 13 13 14 14 14 14 14 14 14 14 13 13 13
22 21 20 19 19 18 18 17 17 17 16 16 16 16 16 15 15 15 15 15 15 15 15 14 14 14 14 14 14 14 13 13 13 13 13 13 13 13 14 13 13 13 13
22 21 20 19 19 18 18 17 17 17 16 16 16 16 16 15 15 15 15 15 15 15 14 14 14 14 14 14 14 13 13 13 13 13 13 13 13 13 13 13 13 13 13
22 21 20 20 19 18 18 17 17 17 16 16 16 16 16 15 15 15 15 15 15 15 14 14 14 14 14 14 13 13 13 13 13 13 13 13 13 13 13 13 13 13 13
22 21 20 20 19 18 18 17 17 17 16 16 16 16 16 15 15 15 15 15 14 14 14 14 14 14 14 13 13 13 13 13 13 13 13 13 13 13 13 13 13 13 13
22 21 20 19 19 18 18 17 17 17 16 16 16 16 15 15 15 15 15 15 14 14 14 14 14 14 13 13 13 13 13 13 13 13 13 13 13 13 13 13 13 12 12
21 20 20 19 19 18 18 18 17 17 16 16 16 15 15 15 15 15 15 14 14 14 14 14 14 13 13 13 13 13 13 13 13 13 13 13 13 13 12 12 12 12 12
21 20 20 19 19 18 18 18 17 17 16 16 16 15 15 15 15 15 14 14 14 14 14 14 13 13 13 13 13 13 13 13 13 13 13 13 13 13 12 12 12 12 12
20 20 20 19 19 18 18 17 17 16 16 16 15 15 15 15 15 14 14 14 14 14 14 13 13 13 13 13 13 13 13 13 13 12 12 12 12 12 12 12 12 12 11
20 20 19 19 18 18 18 17 17 16 16 16 15 15 15 15 15 14 14 14 14 14 13 13 13 13 13 13 13 13 12 12 12 12 12 12 12 12 12 12 12 12 11
19 19 19 18 18 18 18 17 17 16 16 15 15 15 15 14 14 14 14 14 13 13 13 13 13 13 13 13 13 12 12 12 12 12 12 12 12 12 12 12 12 11 11
19 18 18 18 18 18 17 17 17 16 16 15 15 15 14 14 14 14 14 13 13 13 13 13 13 13 12 12 12 12 12 12 12 12 12 11 11 11 11 11 11 11 11
18 18 18 18 17 17 17 17 16 16 16 15 15 14 14 14 14 14 13 13 13 12 12 12 12 12 12 12 12 12 12 12 12 11 11 11 11 11 11 11 11 11 10
18 18 17 17 17 17 16 16 16 16 15 15 15 14 14 14 14 13 13 13 12 12 12 12 12 12 12 12 12 12 11 11 11 11 11 11 11 11 11 11 10 10 10
17 17 17 16 16 16 16 16 15 15 15 15 14 14 14 14 13 13 13 12 12 12 12 12 12 12 12 12 11 11 11 11 11 11 11 11 11 10 10 10 10 10 10
16 16 16 16 16 15 15 15 15 15 15 14 14 14 14 13 13 13 13 12 12 12 11 11 11 11 11 11 11 11 11 11 10 10 10 10 10 10 10 10 10 10 9
16 16 15 15 15 15 15 15 15 14 14 14 14 13 13 13 13 12 12 12 11 11 11 11 10 10 11 11 11 11 11 10 10 10 10 10 10 10 9 9 9 9 9
15 15 15 15 14 14 14 14 14 14 14 13 13 13 13 13 12 12 12 11 11 11 11 10 10 10 10 10 10 10 10 10 10 10 9 9 9 9 9 9 9 9 8
15 14 14 14 14 14 14 14 14 13 13 13 13 13 12 12 12 12 11 11 11 11 11 10 10 10 10 10 10 10 10 10 9 9 9 9 9 8 8 8 8 8 8
14 14 14 14 14 13 13 13 13 13 13 13 12 12 12 11 11 11 11 11 11 11 10 10 10 10 10 10 10 9 9 9 9 8 8 8 8 8 8 8 8 8 7
Wind_Speed
8 7 7 6 5 5 5 6 6 5 4 2 2 3 2 2 2 2 4 5 5 5 5 3 3 3 3 3 3 2 2 2 2 2 2 2 3 3 2 3 3 4 6
9 8 7 6 5 5 4 6 5 5 5 2 3 2 3 2 2 2 4 4 4 4 4 3 2 3 3 3 3 2 1 1 1 1 1 2 1 2 2 2 3 3 4
8 9 8 7 6 5 4 5 5 6 5 4 2 2 2 1 2 3 2 2 3 4 3 3 3 3 3 2 2 2 2 1 1 1 1 2 1 0 1 2 3 3 3
6 8 8 7 7 5 4 5 5 5 5 5 3 2 2 2 2 2 2 2 3 3 2 3 3 2 2 2 2 2 1 1 0 1 1 1 2 2 1 1 1 2 3
7 8 8 7 7 6 4 4 5 5 5 4 4 2 2 2 2 2 2 3 2 2 2 2 2 2 2 2 2 2 1 1 0 0 0 1 1 0 2 1 0 1 1
6 6 7 7 6 6 5 4 5 5 4 4 4 3 3 2 2 2 2 2 2 2 3 2 2 2 2 2 2 2 2 1 0 0 1 1 1 0 1 1 1 1 1
7 7 7 7 6 6 5 5 5 5 5 4 3 4 4 3 3 2 3 3 2 2 2 2 2 2 2 2 2 2 2 2 1 1 0 0 1 1 1 2 1 1 1
7 7 7 7 7 7 6 5 5 5 5 4 3 3 3 2 2 3 2 3 3 3 3 2 2 2 2 2 2 2 2 1 2 2 1 1 0 1 1 1 2 1 0
6 6 7 6 7 7 6 6 6 6 5 4 3 3 4 3 3 2 2 1 2 2 2 2 2 2 2 2 2 2 1 1 1 1 0 1 0 0 0 1 1 2 1
5 6 6 6 6 7 6 6 6 6 6 4 4 2 2 2 2 2 2 2 3 3 4 3 2 2 2 2 2 2 1 1 1 1 1 0 0 0 1 0 0 1 2
4 5 5 5 5 6 6 6 5 5 6 5 4 4 3 2 3 2 2 2 2 3 4 3 3 3 2 2 2 2 2 2 2 2 2 2 2 1 1 0 0 0 1
4 4 4 4 5 6 6 6 6 5 5 5 4 4 4 2 2 2 2 2 2 2 2 3 3 3 2 2 2 2 2 3 2 2 2 2 2 2 1 1 1 1 1
3 3 3 4 4 4 4 5 5 5 5 4 4 4 4 4 3 3 2 3 2 2 2 2 2 2 2 2 2 2 2 2 2 2 2 2 2 2 2 2 1 1 0
3 3 3 3 4 4 4 4 4 4 4 4 4 3 3 4 3 3 2 2 2 2 2 2 2 2 2 2 1 1 2 2 2 2 2 2 2 2 2 2 1 1 1
3 2 2 3 4 4 3 3 4 4 5 5 5 4 3 3 3 2 2 1 1 2 2 2 2 2 2 2 1 1 2 2 2 2 2 2 3 3 2 2 1 1 1
2 1 2 3 3 4 4 4 4 4 5 5 4 3 3 3 3 2 2 2 2 2 1 2 2 1 1 1 1 1 2 2 2 2 3 3 3 3 3 3 3 3 2
2 1 1 1 2 3 4 5 4 4 4 4 3 3 2 2 2 2 2 2 2 2 2 2 2 2 1 1 1 2 2 2 2 2 2 2 2 3 3 2 2 3 3
2 1 1 0 0 1 2 3 4 4 4 4 4 4 3 3 2 2 3 3 2 2 3 3 3 3 2 2 1 3 3 3 2 2 2 2 2 3 3 3 3 3 2
2 1 0 1 1 1 1 1 2 3 4 4 4 4 4 3 3 3 3 2 2 2 2 2 3 3 2 3 2 2 2 2 3 2 1 1 2 2 3 3 3 2 2
2 2 1 1 1 1 1 1 1 1 2 3 3 3 3 3 3 3 3 2 2 2 2 2 2 3 3 3 3 2 2 2 2 2 1 1 1 1 2 3 3 3 3
2 2 1 1 1 1 1 1 1 1 1 1 2 2 2 3 3 2 2 1 1 1 2 2 2 3 3 3 3 3 2 2 2 2 1 1 1 2 2 2 3 4 3
1 1 1 1 1 1 0 0 0 0 1 1 1 2 2 2 2 3 2 2 1 2 2 2 2 2 3 3 3 3 3 2 2 2 1 2 2 2 2 2 2 2 1
0 1 0 0 0 0 0 1 0 1 1 1 1 2 2 2 2 3 3 2 2 2 2 2 2 2 2 2 2 4 4 3 2 1 1 2 3 3 3 3 3 2 1
1 1 1 2 1 1 1 1 1 1 1 2 2 2 2 2 2 2 2 2 2 2 2 2 2 1 1 1 1 2 2 2 2 1 1 1 1 1 1 1 2 2 2
2 2 2 2 2 2 2 2 2 1 2 2 2 3 3 3 2 2 2 3 3 4 4 3 3 2 2 2 3 3 3 3 3 2 1 1 1 1 1 2 2 2 2
2 2 3 3 3 2 2 2 2 2 2 2 2 2 2 3 3 3 1 1 2 4 5 5 4 3 3 3 3 3 3 4 4 3 2 3 3 3 3 3 3 3 3
Wind_Direction
159 150 148 146 140 132 133 127 131 122 104 97 98 99 102 97 79 76 71 58 59 72 82 77 75 67 75 80 78 72 72 60 71 89 89 62 66 80 76 80 76 74 78
155 147 153 147 146 139 138 132 131 121 118 120 129 131 117 113 114 84 73 69 61 64 94 98 93 87 86 83 89 88 65 37 51 94 116 101 31 30 84 90 89 76 72
156 157 157 148 145 138 138 129 126 123 129 128 105 108 116 134 113 107 94 74 82 70 74 96 102 108 107 108 107 101 96 76 334 39 85 117 152 106 42 83 89 88 77
157 153 155 154 153 148 150 141 131 133 129 129 130 142 141 135 138 141 150 141 108 102 95 106 110 119 118 125 148 131 130 120 324 331 15 74 127 131 107 351 67 103 102
155 153 157 154 150 144 140 134 131 127 122 131 148 161 134 136 142 135 137 135 126 132 128 125 136 138 134 140 129 110 132 146 180 293 0 19 26 144 130 163 305 19 108
144 142 139 135 133 133 136 137 132 124 129 151 164 168 158 148 138 140 150 152 151 162 153 161 165 151 156 153 151 164 172 182 194 314 93 102 110 304 115 139 170 166 200
149 146 138 140 138 141 147 152 143 142 151 178 180 166 161 168 159 173 181 175 171 173 182 182 190 177 168 165 169 176 181 195 203 239 200 172 194 154 108 117 163 158 203
142 148 152 154 152 153 160 165 162 163 168 191 189 164 154 174 168 190 193 183 175 172 173 191 186 170 170 177 180 180 201 202 206 222 193 147 272 96 93 127 123 126 271
139 144 149 156 156 162 168 174 172 174 179 197 192 179 174 179 170 196 198 177 171 175 169 184 196 185 177 190 181 185 197 199 222 220 146 158 183 135 106 117 140 151 178
145 147 150 163 165 169 173 181 187 179 178 191 196 178 171 179 177 190 202 193 182 172 170 172 166 187 190 188 174 176 194 167 194 169 117 202 163 152 142 159 290 148 163
151 146 150 160 163 163 173 182 187 180 176 185 193 169 177 197 185 184 208 211 193 180 174 177 179 186 187 184 165 178 187 202 217 210 192 202 184 174 176 180 273 256 143
133 135 145 156 166 173 181 181 181 181 178 181 184 170 175 185 196 188 196 215 211 190 190 184 184 183 184 171 168 212 221 218 219 225 225 221 193 188 197 191 237 238 186
133 133 144 161 168 175 181 179 178 171 164 171 185 180 180 186 198 199 206 209 202 188 195 189 175 182 176 167 188 209 238 242 232 219 219 228 197 206 205 188 205 223 192
137 140 154 165 164 171 178 174 164 159 161 168 185 191 193 184 190 201 199 211 203 185 191 193 180 172 162 164 193 223 235 251 254 223 205 205 189 190 197 190 192 175 161
137 147 162 160 156 165 171 166 163 170 174 176 187 193 199 183 176 172 170 198 227 218 190 188 167 161 157 177 188 234 243 245 255 221 188 194 168 139 153 161 167 161 176
125 145 172 161 171 178 179 175 177 180 175 174 176 178 183 162 159 170 179 205 220 211 208 184 163 168 178 159 163 200 260 253 243 229 207 190 177 163 166 158 164 171 178
113 152 183 170 193 190 177 176 182 171 162 160 159 158 157 151 166 179 182 202 205 199 202 196 180 178 174 181 203 242 236 255 257 245 224 221 189 169 164 182 191 205 212
137 151 177 132 164 131 149 169 170 166 161 160 169 168 169 169 172 186 203 205 208 216 210 208 195 170 172 184 219 257 249 254 251 236 233 220 200 183 175 189 192 206 222
117 124 115 102 73 65 70 147 161 156 160 170 180 174 171 172 183 192 198 201 211 220 216 210 182 167 185 192 205 232 242 249 255 246 241 240 198 173 169 183 204 210 228
75 85 65 72 72 80 104 109 136 146 169 179 177 173 175 176 183 189 191 196 204 205 197 198 187 182 188 192 198 211 226 242 261 250 212 181 177 189 189 201 205 214 220
64 62 59 71 66 55 100 156 153 214 189 149 159 171 170 173 175 180 184 185 189 186 196 199 195 188 185 186 193 205 217 226 247 245 230 212 192 198 222 222 209 220 222
76 70 39 45 59 86 104 80 180 250 97 111 151 175 166 170 168 161 178 190 193 197 211 214 210 197 186 181 200 206 219 238 236 249 226 204 192 209 231 228 225 225 234
194 168 188 191 269 203 200 220 305 142 147 161 183 182 161 153 162 171 179 189 200 205 217 217 222 216 181 173 196 213 225 242 240 246 229 206 208 212 221 234 225 210 201
266 215 204 208 224 229 240 227 195 176 187 197 200 193 182 170 159 167 177 184 203 208 215 221 231 230 176 161 205 217 216 222 235 250 247 215 201 210 245 246 227 219 212
244 231 227 243 239 232 232 221 186 182 215 227 210 196 183 175 178 183 188 194 200 197 204 220 219 209 223 231 225 210 209 206 213 202 184 177 194 216 231 235 224 217 216
255 241 230 240 245 243 237 231 207 198 216 241 233 210 184 178 183 185 189 223 202 192 194 197 200 204 204 214 211 222 231 223 199 172 192 206 210 213 216 218 223 219 217
Height
1520 1522 1524 1526 1527 1529 1530 1530 1531 1532 1532 1533 1534 1534 1534 1535 1535 1536 1536 1536 1536 1536 1536 1536 1536 1536 1537 1537 1538 1538 1539 1539 1539 1540 1541 1542 1543 1543 1544 1544 1544 1544 1544
1517 1520 1522 1524 1526 1528 1529 1530 1531 1531 1531 1532 1533 1533 1534 1534 1535 1536 1536 1536 1536 1536 1536 1536 1536 1536 1537 1537 1537 1538 1539 1539 1540 1540 1541 1542 1544 1544 1544 1544 1545 1545 1544
1515 1518 1520 1523 1525 1526 1528 1529 1530 1530 1531 1532 1532 1533 1534 1534 1535 1535 1535 1536 1536 1536 1536 1536 1536 1536 1537 1537 1537 1538 1538 1539 1540 1540 1541 1542 1542 1543 1544 1544 1545 1545 1544
1513 1516 1519 1521 1523 1525 1527 1528 1529 1529 1530 1531 1531 1532 1533 1533 1534 1534 1535 1535 1535 1536 1536 1536 1536 1536 1536 1537 1537 1538 1538 1539 1539 1540 1541 1542 1542 1543 1543 1545 1545 1545 1544
1512 1514 1517 1519 1522 1524 1525 1527 1528 1528 1529 1530 1531 1531 1532 1533 1533 1534 1534 1534 1535 1535 1535 1535 1536 1536 1536 1537 1537 1537 1538 1539 1539 1539 1540 1540 1541 1542 1542 1543 1544 1544 1544
1510 1513 1515 1518 1520 1522 1524 1525 1526 1527 1528 1528 1529 1530 1531 1532 1533 1533 1533 1534 1534 1534 1534 1535 1535 1535 1536 1536 1536 1537 1538 1538 1538 1539 1539 1540 1540 1540 1541 1542 1543 1543 1544
1509 1512 1514 1516 1518 1520 1522 1523 1525 1525 1526 1527 1528 1529 1530 1531 1531 1532 1532 1532 1533 1533 1533 1534 1534 1534 1535 1535 1536 1536 1537 1537 1538 1538 1538 1539 1539 1540 1541 1541 1542 1542 1543
1507 1510 1512 1514 1516 1518 1520 1521 1523 1524 1525 1526 1527 1528 1528 1529 1530 1530 1531 1531 1531 1532 1532 1532 1533 1533 1534 1534 1534 1535 1536 1537 1537 1537 1538 1538 1538 1539 1539 1540 1541 1541 1542
1506 1508 1510 1513 1514 1516 1518 1519 1521 1522 1523 1524 1525 1526 1527 1527 1528 1528 1529 1530 1530 1530 1530 1531 1531 1532 1532 1533 1533 1534 1534 1535 1536 1536 1537 1537 1537 1538 1538 1539 1540 1540 1540
1504 1506 1509 1511 1513 1514 1516 1517 1519 1520 1521 1522 1523 1524 1525 1525 1526 1527 1527 1527 1528 1528 1529 1529 1529 1529 1529 1531 1531 1532 1533 1534 1534 1535 1535 1535 1536 1536 1537 1537 1538 1539 1539
1503 1505 1507 1509 1511 1512 1514 1515 1517 1518 1519 1520 1521 1522 1523 1523 1524 1524 1525 1525 1526 1526 1526 1527 1527 1528 1528 1529 1529 1530 1531 1532 1532 1533 1533 1533 1534 1534 1535 1535 1536 1537 1537
1502 1504 1505 1507 1509 1510 1512 1513 1514 1515 1516 1518 1519 1520 1520 1521 1522 1522 1522 1523 1524 1524 1525 1525 1526 1526 1527 1527 1528 1528 1529 1530 1530 1531 1531 1531 1532 1532 1533 1533 1534 1534 1535
1500 1502 1504 1505 1507 1508 1509 1511 1512 1513 1514 1515 1516 1517 1518 1519 1519 1520 1520 1521 1522 1522 1523 1523 1523 1524 1525 1525 1526 1527 1527 1528 1528 1528 1529 1529 1530 1530 1531 1531 1532 1532 1533
1499 1501 1502 1503 1505 1506 1507 1508 1509 1510 1511 1513 1514 1515 1515 1516 1517 1517 1518 1519 1519 1520 1520 1521 1521 1522 1522 1523 1524 1524 1525 1525 1526 1526 1526 1527 1527 1527 1528 1529 1529 1530 1530
1497 1499 1500 1501 1503 1504 1505 1506 1507 1508 1509 1510 1511 1512 1513 1513 1514 1515 1515 1516 1517 1518 1518 1519 1519 1519 1520 1521 1521 1522 1522 1523 1523 1523 1524 1524 1524 1525 1525 1526 1526 1527 1528
1496 1497 1499 1499 1500 1501 1502 1503 1504 1505 1506 1507 1508 1509 1510 1510 1511 1512 1512 1513 1514 1514 1515 1516 1516 1517 1517 1518 1518 1519 1519 1520 1520 1521 1521 1521 1522 1522 1523 1523 1524 1524 1525
1495 1496 1497 1498 1499 1499 1500 1501 1502 1503 1504 1505 1505 1506 1507 1508 1508 1509 1509 1510 1511 1511 1512 1513 1513 1513 1514 1515 1515 1516 1516 1517 1517 1518 1518 1518 1518 1519 1519 1520 1520 1521 1522
1493 1494 1495 1496 1497 1497 1498 1499 1500 1501 1501 1502 1503 1503 1504 1504 1505 1506 1506 1507 1507 1508 1508 1509 1510 1510 1511 1512 1512 1513 1513 1513 1514 1514 1515 1515 1515 1516 1516 1517 1517 1517 1518
1492 1493 1494 1494 1495 1495 1496 1496 1497 1498 1499 1499 1500 1500 1501 1501 1502 1502 1502 1503 1504 1504 1505 1505 1506 1506 1507 1508 1509 1509 1509 1510 1510 1511 1512 1512 1512 1513 1513 1513 1514 1514 1514
1490 1491 1492 1492 1493 1493 1494 1494 1495 1495 1496 1496 1497 1497 1498 1498 1499 1499 1499 1500 1500 1501 1501 1502 1502 1503 1503 1504 1505 1506 1506 1506 1506 1507 1508 1508 1509 1509 1510 1510 1510 1510 1510
1489 1489 1490 1490 1491 1491 1491 1492 1492 1493 1493 1494 1494 1494 1495 1495 1495 1496 1496 1497 1497 1497 1498 1498 1498 1499 1500 1500 1501 1501 1502 1502 1502 1503 1503 1504 1505 1505 1506 1506 1506 1506 1507
1487 1487 1488 1488 1489 1489 1489 1489 1490 1490 1490 1491 1491 1491 1491 1492 1492 1493 1493 1493 1494 1494 1494 1494 1495 1495 1496 1496 1497 1497 1498 1498 1498 1499 1499 1500 1501 1501 1502 1502 1502 1503 1503
1485 1486 1486 1486 1486 1487 1487 1487 1487 1487 1487 1487 1488 1488 1488 1488 1489 1489 1489 1490 1490 1490 1490 1491 1491 1491 1492 1492 1493 1493 1494 1494 1495 1495 1495 1496 1496 1497 1497 1497 1498 1498 1498
1483 1483 1483 1483 1483 1484 1484 1485 1484 1484 1484 1484 1484 1484 1485 1485 1485 1485 1486 1486 1486 1487 1487 1487 1487 1487 1487 1488 1488 1489 1489 1490 1491 1491 1491 1492 1492 1493 1493 1493 1494 1494 1494
1481 1480 1480 1480 1480 1481 1481 1481 1481 1481 1481 1481 1481 1481 1481 1481 1481 1482 1482 1482 1482 1483 1483 1483 1483 1483 1483 1483 1484 1485 1485 1486 1486 1487 1487 1487 1488 1488 1488 1489 1489 1489 1489
1477 1477 1477 1477 1477 1477 1477 1478 1478 1478 1478 1478 1477 1477 1478 1477 1478 1478 1478 1479 1479 1479 1479 1479 1479 1479 1480 1480 1481 1481 1482 1482 1483 1483 1483 1483 1483 1484 1484 1485 1485 1485 1485